Other Public Products
Issued by NWS Grand Forks, ND

Home | Current Version | Previous Version | Graphics & Text | Print | Product List | Glossary On
Versions: 1 2 3 4 5 6 7 8 9 10 11 12 13 14 15 16 17 18 19 20 21 22 23 24 25 26 27 28 29 30 31 32 33 34 35 36 37 38 39 40 41 42 43 44 45 46 47 48 49 50
000
FPUS83 KFGF 220110
OPUFGF
PRAIRIE TO PINES WEATHER ROUNDUP
NATIONAL WEATHER SERVICE EASTERN NORTH DAKOTA/GRAND FORKS ND
800 PM CDT WED JUN 21 2017

 **SATELLITE DATA USED TO AUGMENT SKY COVER AT AUTOMATED STATIONS**
 *****  WEATHER ACROSS EASTERN NORTH DAKOTA  *****

CITY           SKY/WX    TMP DP  RH WIND       PRES   REMARKS
GRAND FORKS    FAIR      79  55  43 NW17G25   29.61R
GRAND FORKS AF FAIR      77  55  45 NW17      29.63R
GRAND CITY NWS NOT AVBL
BUXTON         NOT AVBL
DEVILS LAKE    FAIR      73  47  39 NW15G24   29.69R
FARGO          FAIR      80  64  58 SW9       29.60R
WAHPETON ARPT  MOCLDY    72  63  73 CALM      29.64R
$$

 *****  WEATHER ACROSS CENTRAL AND WESTERN NORTH DAKOTA  *****

CITY           SKY/WX    TMP DP  RH WIND       PRES   REMARKS
JAMESTOWN      FAIR      77  47  34 NW21      29.69R
BISMARCK       FAIR      80  40  23 NW13      29.75S
MINOT          FAIR      75  34  22 NW17      29.74R
MINOT AFB      FAIR      74  37  25 NW21      29.73R
GARRISON         N/A     74  38  27 NW18      29.76R
WILLISTON      FAIR      77  35  21 N9        29.78S
DICKINSON      FAIR      75  34  22 NW8       29.78R
HETTINGER      FAIR      80  40  23 N10       29.79S
$$

 *****  OTHER OBSERVATIONS NORTHEAST NORTH DAKOTA  *****

CITY           SKY/WX    TMP DP  RH WIND       PRES   REMARKS
WALHALLA       NOT AVBL
LANGDON        FAIR      72  52  49 NW17      29.67R
CAVALIER       FAIR      75  55  50 W12G17    29.61R
GRAFTON        FAIR      75  55  50 NW18      29.63R
CANDO          NOT AVBL
FORT TOTTEN      N/A     74  48  39 NW8       29.95S
ROLLA            N/A     70  41  35 NW14      29.70S
RUGBY          NOT AVBL
 ***** THE ABOVE OBSERVATIONS ARE NON NWS ARE NOT QUALITY
        CONTROLLED AND MAY MIS-REPORT RAIN FOR SNOW...
$$

 *****  OTHER OBSERVATIONS SOUTHEAST NORTH DAKOTA *****

CITY           SKY/WX    TMP DP  RH WIND       PRES   REMARKS
COOPERSTOWN    FAIR      75  50  41 NW17G26   29.68R
VALLEY CITY    FAIR      77  54  44 NW15G24   29.69R
OAKES          NOT AVBL
GWINNER        PTCLDY    81  63  54 N16       29.64R
SHEYENNE NWR     N/A     85  69  57 W5        29.95S
BUFFALO        NOT AVBL
WYNDMERE       NOT AVBL
 ***** THE ABOVE OBSERVATIONS ARE NON NWS ARE NOT QUALITY
       CONTROLLED AND MAY MIS-REPORT RAIN FOR SNOW...
$$

  *****  WEATHER ACROSS NORTHERN MINNESOTA  *****

CITY           SKY/WX    TMP DP  RH WIND       PRES   REMARKS
FLAG ISLAND    PTSUNNY   61  54  77 E10G16    29.60F
WARROAD        FAIR      70  61  73 SE13      29.60F
ROSEAU         FAIR      70  61  73 SE10G16   29.58F
HALLOCK        FAIR      73  59  60 NW16      29.59R
THF RVR FALLS  FAIR      73  64  73 CALM      29.62R
HALSTAD        NOT AVBL
FOSSTON        CLOUDY    66  63  88 SE5G16    29.62S
BAUDETTE       FAIR      66  60  81 SE7       29.63F
WASKISH        LGT RAIN  64  59  82 CALM      29.67R
CROOKSTON      FAIR      79  61  53 NW15      29.60R
$$
  *****  WEATHER ACROSS CENTRAL AND WEST MINNESOTA  *****

CITY           SKY/WX    TMP DP  RH WIND       PRES   REMARKS
BEMIDJI        CLOUDY    68  61  78 SW7       29.66R
PARK RAPIDS    PTSUNNY   78  57  48 S13       29.64F
WADENA         FAIR      73  63  68 S14       29.64F
DETROIT LAKES  FAIR      75  63  64 S15       29.64R
MOORHEAD       FAIR      79  63  57 S7        29.61S
FERGUS FALLS   TSTM      66  66 100 SE10      29.61F
ELBOW LAKE     FAIR      78  64  61 S3        29.65R
MORRIS MN      FAIR      82  63  51 S9        29.62F
STAPLES        LGT RAIN  73  59  60 S9        29.70R
WHEATON        FAIR      81  64  57 SE6       29.62S
$$
  *****  WEATHER ELSEWHERE ACROSS MINNESOTA  *****

CITY           SKY/WX    TMP DP  RH WIND       PRES   REMARKS
DULUTH         FAIR      60  48  64 E14       29.75F
INTRNTL FALLS  CLOUDY    63  56  78 SE9       29.67F
ELY            RAIN      63  52  67 SE10      29.75S
CLOQUET        FAIR      63  45  51 E5        29.75S
BRAINERD       FAIR      73  56  54 S6        29.70S
HIBBING        MOCLDY    65  56  72 SE8       29.71F
ALEXANDRIA     FAIR      77  61  57 S15       29.67F
SAINT CLOUD    FAIR      77  61  57 S13       29.70F
MINNEAPOLIS    FAIR      78  60  53 S14       29.72F
$$

  *****  WEATHER ACROSS SOUTH DAKOTA  *****

CITY           SKY/WX    TMP DP  RH WIND       PRES   REMARKS
SIOUX FALLS    FAIR      83  72  69 E8        29.66F
BROOKINGS      FAIR      82  68  62 S9        29.67F
WATERTOWN      FAIR      79  66  64 S10       29.65F
HURON          FAIR      85  67  54 S3        29.63F
SISSETON         N/A     83  65  54 SW20G26   29.60F
ABERDEEN       CLOUDY    78  68  71 NE5       29.64R
MITCHELL       FAIR      87  66  49 SE5       29.64F
PIERRE         LGT RAIN  86  62  44 N6        29.65S
MOBRIDGE       FAIR      83  48  29 N21G28    29.69R
RAPID CITY     FAIR      87  50  27 N8        29.76F
$$

  *****  SOME WEATHER IN NEARBY STATES *****

CITY           SKY/WX    TMP DP  RH WIND       PRES   REMARKS
GLASGOW MT     FAIR      76  36  23 VRB3      29.72F
GREAT FALLS MT FAIR      75  24  15 W25G33    29.84R
CHEYENNE WY    FAIR      85  38  18 W20G32    29.98S
SCOTTSBLUFF NE FAIR      91  49  23 NE9       29.78F
OMAHA NE       FAIR      93  63  36 S16       29.67R HX  94
DES MOINES IA  FAIR      87  64  46 S12       29.75R
DAVENPORT IA   LGT RAIN  73  67  81 S10       29.83F
CHICAGO IL     MOCLDY    74  54  49 SE9       29.90R
EAU CLAIRE WI  FAIR      74  54  49 S10       29.78F
LA CROSSE WI   FAIR      75  57  53 SE9       29.80F
$$

  *****  SOME NATIONAL WEATHER *****

CITY           SKY/WX    TMP DP  RH WIND       PRES   REMARKS
LA GUARDIA NY  FAIR      83  57  41 W12G21    29.89R
RALEIGH NC     MOCLDY    78  72  81 SW10      30.06S
ATLANTA GA     LGT RAIN  72  70  93 CALM      30.10S
NEW ORLEANS LA MOCLDY    81  75  82 SE23G31   29.70R
OKLAHOMA CITY  FAIR      86  55  34 SE10      29.82F
ALBUQUERQUE NM FAIR      99  27   8 CALM      29.92F HX  92
SALT LAKE CITY FAIR      96  45  17 N13       29.86S HX  92
LOS ANGELES CA FAIR      70  60  70 W10       29.70F
BOISE ID       FAIR      83  31  15 NW16      29.95F
SEATTLE WA     FAIR      67  46  47 N12       30.27F
$$

*** WEATHER ACROSS MANITOBA...SASKATCHEWAN AND ONTARIO ***
                ***ONTARIO***

CITY           SKY/WX    TMP DP  RH WIND       PRES   REMARKS
GERALDTON      MOCLDY    64  39  39 S8        29.81S
THUNDER BAY    MOCLDY    64  45  48 S3        29.77F
SIOUX LOOKOUT  LGT RAIN  55  52  88 SE6       29.74F
TORONTO        PTCLDY    70  52  52 NW9       29.95S
BIG TROUT LK   PTSUNNY   68  43  40 S10       29.66F
PICKLE LAKE    LGT RAIN  66  46  48 S14       29.71S
DRYDEN         LGT RAIN  55  52  88 SE9       29.71F
KENORA         LGT RAIN  55  54  94 SE12G18   29.63F
$$
                *** MANITOBA***

CITY           SKY/WX    TMP DP  RH WIND       PRES   REMARKS
BRANDON        MOSUNNY   68  43  40 W16G24    29.64R
DAUPHIN        SUNNY     70  43  37 W20G25    29.57R
ISLAND LAKE    LGT RAIN  63  52  67 S7        29.58S
PILOT MOUND      N/A     68  45  42 W13G21      N/A
THE PAS        PTSUNNY   61  46  59 SW13G22   29.42S
THOMPSON       PTSUNNY   64  54  68 SW8       29.49F
WINNIPEG       PTSUNNY   64  59  82 S7        29.58F
LYNN LAKE      CLOUDY    64  52  63 SE12      29.46R
CHURCHILL      CLOUDY    72  46  40 SE20G25   29.52S
GILLAM         MOSUNNY   77  41  27 S2        29.51F
$$
                ***SASKATCHEWAN***

CITY           SKY/WX    TMP DP  RH WIND       PRES   REMARKS
ESTEVAN        MOSUNNY   70  41  35 NW13G22   29.76R
KINDERSLEY     PTSUNNY   63  36  36 NW17G25   29.75S
LLOYDMINSTER   PTSUNNY   61  36  39 NW24G36   29.70R
PRINCE ALBERT  CLOUDY    54  46  76 NW17G28   29.58R
REGINA         PTSUNNY   68  34  28 W23G36    29.72S
YORKTON        PTSUNNY   68  41  37 NW14G29   29.62R



USA.gov is the U.S. government's official web portal to all federal, state and local government web resources and services.